Location: Chena
(64.8152°N, 147.9227°W)
Time: 08:17:33
(UTC+00:00)

N. Korean satellite - Pass Details

Date: 28 January 2021
Orbit: 451 x 502 km, 97.2° (Epoch: 08 March)

Event Time Altitude Azimuth Distance (km) Brightness Sun altitude
Rises 15:50:59 0° 17° (NNE) 2,532 10.4 -17.7°
Reaches altitude 10° 15:53:03 10° 19° (NNE) 1,641 9.4 -17.5°
Maximum altitude 15:56:35 82° 107° (ESE) 476 6.5 -17.1°
Drops below altitude 10° 16:00:02 10° 196° (SSW) 1,606 9.1 -16.7°
Sets 16:02:03 0° 197° (SSW) 2,471 10.1 -16.5°
